TimeEST,TemperatureF,Dew PointF,Humidity,Sea Level PressureIn,VisibilityMPH,Wind Direction,Wind SpeedMPH,Gust SpeedMPH,PrecipitationIn,Events,Conditions,WindDirDegrees,DateUTC
12:53 AM,19.9,12.9,74,30.25,10.0,Calm,Calm,-,N/A,,Clear,0,2013-02-18 05:53:00
1:53 AM,21.0,12.9,71,30.27,10.0,Calm,Calm,-,N/A,,Clear,0,2013-02-18 06:53:00
2:53 AM,19.9,12.9,74,30.27,10.0,Calm,Calm,-,N/A,,Clear,0,2013-02-18 07:53:00
3:53 AM,18.0,12.9,81,30.28,10.0,Calm,Calm,-,N/A,,Clear,0,2013-02-18 08:53:00
4:53 AM,18.0,14.0,84,30.29,10.0,Calm,Calm,-,N/A,,Clear,0,2013-02-18 09:53:00
5:53 AM,18.0,12.9,81,30.31,10.0,Calm,Calm,-,N/A,,Clear,0,2013-02-18 10:53:00
6:53 AM,19.0,12.9,77,30.32,10.0,Calm,Calm,-,N/A,,Partly Cloudy,0,2013-02-18 11:53:00
7:53 AM,19.9,15.1,81,30.32,10.0,Calm,Calm,-,N/A,,Partly Cloudy,0,2013-02-18 12:53:00
8:53 AM,26.1,16.0,66,30.32,10.0,ENE,3.5,-,N/A,,Partly Cloudy,60,2013-02-18 13:53:00
9:53 AM,30.9,17.1,57,30.32,10.0,Calm,Calm,-,N/A,,Partly Cloudy,0,2013-02-18 14:53:00
10:53 AM,39.0,19.0,45,30.30,10.0,Calm,Calm,-,N/A,,Scattered Clouds,0,2013-02-18 15:53:00
11:53 AM,45.0,19.0,36,30.28,10.0,SE,3.5,-,N/A,,Scattered Clouds,130,2013-02-18 16:53:00
12:53 PM,48.9,21.0,33,30.24,10.0,Variable,3.5,-,N/A,,Scattered Clouds,0,2013-02-18 17:53:00
1:53 PM,53.1,25.0,34,30.19,10.0,WSW,11.5,-,N/A,,Scattered Clouds,240,2013-02-18 18:53:00
2:53 PM,55.0,26.1,33,30.15,10.0,SW,10.4,-,N/A,,Scattered Clouds,230,2013-02-18 19:53:00
3:53 PM,55.0,26.1,33,30.14,10.0,Calm,Calm,-,N/A,,Scattered Clouds,0,2013-02-18 20:53:00
4:53 PM,55.0,27.0,34,30.12,10.0,South,4.6,-,N/A,,Scattered Clouds,180,2013-02-18 21:53:00
5:53 PM,52.0,28.0,40,30.11,10.0,South,3.5,-,N/A,,Scattered Clouds,170,2013-02-18 22:53:00
6:53 PM,50.0,21.9,33,30.11,10.0,SSE,10.4,-,N/A,,Scattered Clouds,160,2013-02-18 23:53:00
7:53 PM,48.0,21.9,36,30.09,10.0,SE,9.2,19.6,N/A,,Scattered Clouds,140,2013-02-19 00:53:00
8:53 PM,46.0,21.9,39,30.08,10.0,SSE,5.8,-,N/A,,Scattered Clouds,150,2013-02-19 01:53:00
9:53 PM,45.0,23.0,42,30.05,10.0,SE,5.8,-,N/A,,Scattered Clouds,130,2013-02-19 02:53:00
10:53 PM,44.1,21.9,42,30.02,10.0,SSE,5.8,-,N/A,,Scattered Clouds,160,2013-02-19 03:53:00
11:53 PM,46.0,21.9,39,29.99,10.0,SSE,6.9,18.4,N/A,,Clear,150,2013-02-19 04:53:00